| time (UTC) | temp C | wind direction | speed KPH | gust KPH | rain 1hr cm | rain 24hr cm | rain mn cm | humidity % | barometer mb |
| 20260510194609 | 13 | 26 | 8.0 | 19.3 | 0.00 | 0.03 | 0.00 | 44 | 1026.0 |
| 20260510193057 | 13 | 311 | 4.8 | 19.3 | 0.00 | 0.03 | 0.00 | 46 | 1026.0 |
| 20260510191558 | 12 | 1 | 11.3 | 22.5 | 0.00 | 0.03 | 0.00 | 47 | 1026.0 |
| 20260510190107 | 13 | 359 | 4.8 | 14.5 | 0.00 | 0.03 | 0.00 | 47 | 1026.1 |
| 20260510184607 | 13 | 28 | 6.4 | 16.1 | 0.00 | 0.03 | 0.00 | 50 | 1026.2 |
| 20260510183104 | 13 | 47 | 6.4 | 16.1 | 0.00 | 0.03 | 0.00 | 48 | 1026.3 |
| 20260510181617 | 12 | 37 | 6.4 | 16.1 | 0.00 | 0.03 | 0.00 | 51 | 1026.7 |
| 20260510180104 | 12 | 21 | 8.0 | 17.7 | 0.00 | 0.03 | 0.00 | 50 | 1026.7 |
| 20260510174614 | 11 | 89 | 8.0 | 17.7 | 0.00 | 0.03 | 0.00 | 53 | 1026.6 |
| 20260510173057 | 12 | 25 | 6.4 | 16.1 | 0.00 | 0.03 | 0.00 | 52 | 1026.9 |
| 20260510171621 | 11 | 44 | 8.0 | 14.5 | 0.00 | 0.03 | 0.00 | 54 | 1026.7 |
| 20260510170104 | 11 | 352 | 8.0 | 14.5 | 0.00 | 0.03 | 0.00 | 59 | 1026.7 |
| 20260510164601 | 11 | 356 | 8.0 | 16.1 | 0.00 | 0.03 | 0.00 | 62 | 1026.7 |
| 20260510163111 | 11 | 75 | 6.4 | 17.7 | 0.00 | 0.03 | 0.00 | 64 | 1026.7 |
| 20260510161600 | 11 | 108 | 4.8 | 17.7 | 0.00 | 0.03 | 0.00 | 66 | 1026.6 |
| 20260510160058 | 11 | 330 | 8.0 | 14.5 | 0.00 | 0.03 | 0.00 | 68 | 1026.5 |
| 20260510154601 | 10 | 16 | 3.2 | 12.9 | 0.00 | 0.03 | 0.00 | 71 | 1026.3 |
| 20260510153100 | 10 | 34 | 1.6 | 11.3 | 0.00 | 0.03 | 0.00 | 72 | 1026.4 |
| 20260510151557 | 9 | 18 | 3.2 | 11.3 | 0.00 | 0.03 | 0.00 | 75 | 1026.1 |
| 20260510150058 | 8 | 324 | 3.2 | 11.3 | 0.00 | 0.03 | 0.00 | 76 | 1026.0 |
| 20260510144611 | 9 | 39 | 6.4 | 12.9 | 0.00 | 0.03 | 0.00 | 74 | 1025.9 |
| 20260510143057 | 8 | 89 | 3.2 | 9.7 | 0.00 | 0.03 | 0.00 | 75 | 1025.9 |
| 20260510141556 | 8 | 60 | 1.6 | 6.4 | 0.00 | 0.03 | 0.00 | 77 | 1025.9 |
| 20260510140056 | 7 | 23 | 4.8 | 9.7 | 0.00 | 0.03 | 0.00 | 81 | 1025.9 |
| 20260510134557 | 7 | 75 | 3.2 | 6.4 | 0.00 | 0.03 | 0.00 | 81 | 1025.8 |
| 20260510133057 | 7 | 53 | 0.0 | 3.2 | 0.00 | 0.03 | 0.00 | 80 | 1025.8 |
| 20260510131557 | 7 | 39 | 0.0 | 3.2 | 0.00 | 0.03 | 0.00 | 83 | 1026.0 |
| 20260510130057 | 5 | 0 | 0.0 | 0.0 | 0.00 | 0.03 | 0.00 | 91 | 1026.0 |
| 20260510124602 | 5 | 0 | 0.0 | 1.6 | 0.00 | 0.03 | 0.00 | 93 | 1026.0 |
| 20260510123058 | 4 | 0 | 0.0 | 0.0 | 0.00 | 0.03 | 0.00 | 93 | 1026.2 |
| 20260510121558 | 4 | 0 | 0.0 | 0.0 | 0.00 | 0.03 | 0.00 | 93 | 1026.3 |
| 20260510120056 | 4 | 0 | 0.0 | 3.2 | 0.00 | 0.03 | 0.00 | 93 | 1026.1 |
| 20260510114620 | 4 | 25 | 0.0 | 1.6 | 0.00 | 0.03 | 0.00 | 92 | 1026.1 |
| 20260510113101 | 4 | 0 | 0.0 | 1.6 | 0.00 | 0.03 | 0.00 | 91 | 1025.8 |
| 20260510111602 | 5 | 105 | 0.0 | 1.6 | 0.00 | 0.03 | 0.00 | 90 | 1025.7 |
| 20260510110104 | 5 | 0 | 0.0 | 1.6 | 0.00 | 0.03 | 0.00 | 90 | 1025.7 |
| 20260510104557 | 5 | 0 | 0.0 | 1.6 | 0.00 | 0.03 | 0.00 | 90 | 1025.6 |
| 20260510103100 | 5 | 0 | 0.0 | 0.0 | 0.00 | 0.03 | 0.00 | 90 | 1025.6 |
| 20260510101608 | 5 | 0 | 0.0 | 0.0 | 0.00 | 0.03 | 0.00 | 90 | 1025.5 |
| 20260510100111 | 5 | 0 | 0.0 | 1.6 | 0.00 | 0.03 | 0.00 | 90 | 1025.3 |
| 20260510094557 | 5 | 0 | 0.0 | 1.6 | 0.00 | 0.03 | 0.00 | 90 | 1025.2 |
| 20260510093059 | 5 | 0 | 0.0 | 3.2 | 0.00 | 0.03 | 0.00 | 90 | 1025.1 |
| 20260510091558 | 5 | 0 | 0.0 | 0.0 | 0.00 | 0.03 | 0.00 | 90 | 1025.2 |
| 20260510090058 | 5 | 0 | 0.0 | 0.0 | 0.00 | 0.03 | 0.00 | 89 | 1024.9 |
| 20260510084610 | 5 | 0 | 0.0 | 0.0 | 0.00 | 0.03 | 0.00 | 89 | 1024.6 |
| 20260510083058 | 5 | 0 | 0.0 | 0.0 | 0.00 | 0.03 | 0.00 | 89 | 1024.5 |
| 20260510081607 | 5 | 0 | 0.0 | 0.0 | 0.00 | 0.03 | 0.00 | 89 | 1024.6 |
| 20260510080104 | 5 | 0 | 0.0 | 0.0 | 0.00 | 0.03 | 0.00 | 88 | 1024.7 |
| 20260510074557 | 5 | 0 | 0.0 | 1.6 | 0.00 | 0.03 | 0.00 | 88 | 1024.6 |
| 20260510073100 | 5 | 194 | 1.6 | 3.2 | 0.00 | 0.03 | 0.00 | 89 | 1024.7 |
| 20260510071556 | 5 | 0 | 0.0 | 1.6 | 0.00 | 0.03 | 0.00 | 88 | 1024.9 |
| 20260510070113 | 5 | 0 | 0.0 | 0.0 | 0.00 | 0.03 | 0.00 | 87 | 1024.9 |
| 20260510064558 | 5 | 0 | 0.0 | 0.0 | 0.00 | 0.03 | 0.00 | 89 | 1025.0 |
| 20260510063057 | 5 | 0 | 0.0 | 1.6 | 0.00 | 0.03 | 0.00 | 89 | 1025.1 |
| 20260510061556 | 5 | 0 | 0.0 | 0.0 | 0.00 | 0.03 | 0.00 | 89 | 1025.3 |
| 20260510060059 | 5 | 0 | 0.0 | 0.0 | 0.00 | 0.03 | 0.00 | 89 | 1025.2 |
| 20260510054601 | 5 | 0 | 0.0 | 0.0 | 0.00 | 0.03 | 0.03 | 89 | 1025.1 |
| 20260510053059 | 5 | 0 | 0.0 | 0.0 | 0.00 | 0.03 | 0.03 | 89 | 1025.0 |
| 20260510051607 | 5 | 0 | 0.0 | 0.0 | 0.03 | 0.03 | 0.03 | 89 | 1025.1 |
| 20260510050111 | 5 | 0 | 0.0 | 6.4 | 0.03 | 0.03 | 0.03 | 88 | 1025.1 |
| 20260510044555 | 5 | 0 | 0.0 | 0.0 | 0.03 | 0.03 | 0.03 | 85 | 1025.3 |
| 20260510043057 | 6 | 0 | 0.0 | 3.2 | 0.03 | 0.03 | 0.03 | 82 | 1025.2 |
| 20260510041600 | 6 | 105 | 0.0 | 3.2 | 0.00 | 0.00 | 0.00 | 81 | 1025.0 |
| 20260510040105 | 6 | 168 | 0.0 | 4.8 | 0.00 | 0.00 | 0.00 | 77 | 1025.3 |
| 20260510034559 | 6 | 133 | 0.0 | 9.7 | 0.00 | 0.00 | 0.00 | 77 | 1025.3 |
| 20260510033104 | 6 | 0 | 0.0 | 6.4 | 0.00 | 0.00 | 0.00 | 78 | 1025.1 |
| 20260510031602 | 6 | 82 | 0.0 | 6.4 | 0.00 | 0.00 | 0.00 | 78 | 1024.6 |
| 20260510024602 | 6 | 0 | 0.0 | 6.4 | 0.00 | 0.00 | 0.00 | 78 | 1024.0 |
| 20260510023056 | 6 | 85 | 4.8 | 22.5 | 0.00 | 0.00 | 0.00 | 77 | 1023.4 |
| 20260510021645 | 6 | 55 | 4.8 | 16.1 | 0.00 | 0.00 | 0.00 | 77 | 1022.9 |
| 20260510020101 | 7 | 49 | 4.8 | 22.5 | 0.00 | 0.00 | 0.00 | 75 | 1022.5 |
| 20260510014600 | 7 | 319 | 8.0 | 29.0 | 0.00 | 0.00 | 0.00 | 72 | 1022.1 |
| 20260510013107 | 8 | 79 | 8.0 | 24.1 | 0.00 | 0.00 | 0.00 | 68 | 1021.3 |
| 20260510011556 | 9 | 75 | 8.0 | 20.9 | 0.00 | 0.00 | 0.00 | 63 | 1020.6 |
| 20260510004555 | 13 | 81 | 9.7 | 24.1 | 0.00 | 0.00 | 0.00 | 47 | 1019.5 |
| 20260510003103 | 17 | 86 | 3.2 | 14.5 | 0.00 | 0.00 | 0.00 | 13 | 1017.9 |
| 20260510001603 | 18 | 353 | 1.6 | 16.1 | 0.00 | 0.00 | 0.00 | 12 | 1017.3 |
| 20260510000056 | 18 | 0 | 3.2 | 11.3 | 0.00 | 0.00 | 0.00 | 13 | 1017.2 |
| 20260509234557 | 19 | 225 | 4.8 | 14.5 | 0.00 | 0.00 | 0.00 | 12 | 1016.9 |
| 20260509233055 | 20 | 82 | 3.2 | 12.9 | 0.00 | 0.00 | 0.00 | 11 | 1016.7 |
| 20260509231604 | 20 | 32 | 3.2 | 14.5 | 0.00 | 0.00 | 0.00 | 11 | 1016.5 |
| 20260509230059 | 20 | 74 | 1.6 | 11.3 | 0.00 | 0.00 | 0.00 | 10 | 1016.3 |
| 20260509224600 | 21 | 174 | 3.2 | 12.9 | 0.00 | 0.00 | 0.00 | 9 | 1016.0 |
| 20260509223100 | 21 | 167 | 3.2 | 19.3 | 0.00 | 0.00 | 0.00 | 8 | 1016.2 |
| 20260509221556 | 21 | 36 | 6.4 | 27.4 | 0.00 | 0.00 | 0.00 | 10 | 1016.0 |
| 20260509220055 | 21 | 331 | 8.0 | 20.9 | 0.00 | 0.00 | 0.00 | 12 | 1015.9 |
| 20260509214555 | 21 | 159 | 6.4 | 19.3 | 0.00 | 0.00 | 0.00 | 11 | 1016.0 |
| 20260509213114 | 21 | 132 | 6.4 | 17.7 | 0.00 | 0.00 | 0.00 | 10 | 1016.1 |
| 20260509211604 | 21 | 63 | 4.8 | 22.5 | 0.00 | 0.00 | 0.00 | 11 | 1015.8 |
| 20260509210059 | 21 | 82 | 9.7 | 19.3 | 0.00 | 0.00 | 0.00 | 11 | 1016.0 |
| 20260509204556 | 21 | 91 | 8.0 | 17.7 | 0.00 | 0.00 | 0.00 | 13 | 1016.4 |
| 20260509203057 | 20 | 34 | 6.4 | 20.9 | 0.00 | 0.00 | 0.00 | 14 | 1016.5 |
| 20260509201605 | 20 | 236 | 8.0 | 16.1 | 0.00 | 0.00 | 0.00 | 15 | 1016.7 |
| 20260509200103 | 20 | 278 | 9.7 | 25.7 | 0.00 | 0.00 | 0.00 | 14 | 1017.0 |